This is the latest recevied weather packets stored in our database for station/object DL3TR-13. If no packets are shown the sender has not sent any weather packets the latest 10 day(s).
| Time | Temp. | Humidity | Pressure | Rain* | Wind** | Luminosity | Snow |
|---|---|---|---|---|---|---|---|
| 1778052205 | 11.11° C | 89% | 1005.1 hPa | 0 mm | - | 113 W/m² | - |
| 1778051590 | 10.56° C | 90% | 1005.1 hPa | 0 mm | - | 114 W/m² | - |
| 1778050990 | 10.56° C | 90% | 1004.9 hPa | 0 mm | - | 116 W/m² | - |
| 1778050390 | 10.56° C | 90% | 1005.3 hPa | 0 mm | - | 121 W/m² | - |
| 1778049790 | 10.56° C | 90% | 1005.4 hPa | 0 mm | - | 97 W/m² | - |
| 1778049191 | 10.56° C | 90% | 1005.5 hPa | 0 mm | - | 114 W/m² | - |
| 1778048591 | 10° C | 91% | 1005.4 hPa | 0 mm | - | 109 W/m² | - |
| 1778047990 | 10° C | 91% | 1005.4 hPa | 0 mm | - | 128 W/m² | - |
| 1778047390 | 9.44° C | 91% | 1005.4 hPa | 0 mm | - | 118 W/m² | - |
| 1778046790 | 9.44° C | 91% | 1005.4 hPa | 0 mm | - | 123 W/m² | - |
| 1778046190 | 9.44° C | 92% | 1005.5 hPa | 0 mm | - | 102 W/m² | - |
| 1778045591 | 8.89° C | 93% | 1005.4 hPa | 0 mm | - | 86 W/m² | - |
| 1778044990 | 8.89° C | 93% | 1005.5 hPa | 0 mm | - | 83 W/m² | - |
| 1778044390 | 8.33° C | 93% | 1005.6 hPa | 0 mm | - | 70 W/m² | - |
| 1778043790 | 8.33° C | 94% | 1005.7 hPa | 0 mm | - | 54 W/m² | - |
| 1778043190 | 8.33° C | 94% | 1005.8 hPa | 0 mm | - | 46 W/m² | - |
| 1778042591 | 8.33° C | 94% | 1005.9 hPa | 0 mm | - | 40 W/m² | - |
| 1778041991 | 7.78° C | 93% | 1006 hPa | 0 mm | - | 32 W/m² | - |
| 1778041390 | 7.78° C | 93% | 1006.1 hPa | 0 mm | - | 23 W/m² | - |
| 1778040790 | 7.78° C | 93% | 1006.1 hPa | 0 mm | - | 7 W/m² | - |
| 1778040190 | 7.78° C | 93% | 1006.3 hPa | 0 mm | - | 0 W/m² | - |
| 1778039590 | 7.78° C | 93% | 1006.4 hPa | 0 mm | - | 0 W/m² | - |
| 1778038990 | 7.78° C | 93% | 1006.4 hPa | 0 mm | - | 0 W/m² | - |
| 1778038391 | 8.33° C | 93% | 1006.5 hPa | 0 mm | - | 0 W/m² | - |
| 1778037790 | 8.33° C | 94% | 1006.5 hPa | 0 mm | - | 0 W/m² | - |
* Rain latest hour (hover to see other rain measurements)
** Current wind speed in m/s (hover to see current wind gust speed)